When you browse on this site, cookies collect data to enhance your experience and personalize the content and advertising you see.
Visit our Privacy Policy to learn more. By continuing to use the site, you agree to this use of cookies and data.
  • în România
  • Lista ţărilor
  • Pe 7 zile
  • Temperatura apei
  • Hartă satelitară
  • Meteo pe hartă
  • Widget-uri
  • user-avatar
    Intrare

    Meteo pe oră la Solomkino

    Astăzi, 19 Martie, Marţi

    Timp Temperatura Precipitaţii Vânt Presiune Umiditate
    00:00 +2°C° 0 mm 1 m/s 741 mmHg 95%
    01:00 +2°C° 0 mm 1 m/s 741 mmHg 94%
    02:00 +2°C° 0 mm 1 m/s 741 mmHg 93%
    03:00 +1°C° 0 mm 2 m/s 741 mmHg 93%
    04:00 +1°C° 0 mm 2 m/s 741 mmHg 93%
    05:00 +1°C° 0 mm 2 m/s 741 mmHg 93%
    06:00 +2°C° 0 mm 2 m/s 742 mmHg 91%
    07:00 +1°C° 0 mm 3 m/s 742 mmHg 89%
    08:00 +2°C° 0 mm 3 m/s 742 mmHg 86%
    09:00 +3°C° 0 mm 3 m/s 742 mmHg 80%
    10:00 +4°C° 0 mm 4 m/s 743 mmHg 74%
    11:00 +5°C° 0 mm 4 m/s 743 mmHg 68%
    12:00 +5°C° 0.1 mm 4 m/s 743 mmHg 68%
    13:00 +6°C° 0.1 mm 4 m/s 743 mmHg 67%
    14:00 +6°C° 0.1 mm 4 m/s 743 mmHg 67%
    15:00 +5°C° 0.2 mm 4 m/s 743 mmHg 71%
    16:00 +4°C° 0.2 mm 3 m/s 743 mmHg 75%
    17:00 +4°C° 0.2 mm 2 m/s 743 mmHg 79%
    18:00 +3°C° 0.1 mm 2 m/s 744 mmHg 82%
    19:00 +3°C° 0.1 mm 2 m/s 744 mmHg 85%
    20:00 +2°C° 0.1 mm 2 m/s 744 mmHg 87%
    21:00 +1°C° 0 mm 2 m/s 744 mmHg 88%
    22:00 +1°C° 0 mm 2 m/s 745 mmHg 88%
    23:00 -1°C° 0 mm 3 m/s 745 mmHg 89%

    Mâine, 20 Martie, Miercuri

    Timp Temperatura Precipitaţii Vânt Presiune Umiditate
    00:00 -1°C° 0 mm 3 m/s 745 mmHg 90%
    01:00 -2°C° 0 mm 3 m/s 745 mmHg 91%
    02:00 -2°C° 0 mm 3 m/s 746 mmHg 92%
    03:00 -2°C° 0 mm 3 m/s 746 mmHg 91%
    04:00 -1°C° 0 mm 3 m/s 746 mmHg 90%
    05:00 -1°C° 0 mm 3 m/s 746 mmHg 89%
    06:00 -2°C° 0 mm 4 m/s 747 mmHg 87%
    07:00 -2°C° 0 mm 4 m/s 747 mmHg 85%
    08:00 -2°C° 0 mm 4 m/s 747 mmHg 83%
    09:00 -1°C° 0 mm 4 m/s 748 mmHg 82%
    10:00 -1°C° 0 mm 4 m/s 748 mmHg 80%
    11:00 -1°C° 0 mm 4 m/s 748 mmHg 78%
    12:00 0°C° 0 mm 4 m/s 748 mmHg 77%
    13:00 0°C° 0 mm 4 m/s 748 mmHg 76%
    14:00 +1°C° 0 mm 3 m/s 748 mmHg 75%
    15:00 +1°C° 0 mm 3 m/s 748 mmHg 75%
    16:00 +1°C° 0 mm 3 m/s 748 mmHg 76%
    17:00 +1°C° 0 mm 3 m/s 748 mmHg 76%
    18:00 0°C° 0 mm 3 m/s 747 mmHg 77%
    19:00 0°C° 0 mm 3 m/s 747 mmHg 78%
    20:00 -1°C° 0 mm 3 m/s 746 mmHg 80%
    21:00 -1°C° 0.6 mm 4 m/s 745 mmHg 81%
    22:00 -1°C° 0.6 mm 4 m/s 744 mmHg 83%
    23:00 -1°C° 0.6 mm 5 m/s 743 mmHg 85%

    Poimâine, 21 Martie, Joi

    Timp Temperatura Precipitaţii Vânt Presiune Umiditate
    00:00 0°C° 0.7 mm 5 m/s 743 mmHg 85%
    01:00 0°C° 0.7 mm 5 m/s 742 mmHg 86%
    02:00 0°C° 0.7 mm 5 m/s 742 mmHg 87%
    03:00 0°C° 0.1 mm 5 m/s 742 mmHg 86%
    04:00 0°C° 0.1 mm 5 m/s 742 mmHg 85%
    05:00 -1°C° 0.1 mm 5 m/s 742 mmHg 84%
    06:00 -1°C° 0.1 mm 5 m/s 743 mmHg 84%
    07:00 -1°C° 0.1 mm 5 m/s 744 mmHg 83%
    08:00 -2°C° 0.1 mm 6 m/s 744 mmHg 82%
    09:00 -1°C° 0 mm 6 m/s 745 mmHg 80%
    10:00 -1°C° 0 mm 6 m/s 745 mmHg 77%
    11:00 +1°C° 0 mm 6 m/s 745 mmHg 75%
    12:00 +1°C° 0 mm 5 m/s 746 mmHg 74%
    13:00 +2°C° 0 mm 5 m/s 746 mmHg 73%
    14:00 +2°C° 0 mm 5 m/s 746 mmHg 71%
    15:00 +3°C° 0 mm 4 m/s 747 mmHg 74%
    16:00 +3°C° 0 mm 3 m/s 747 mmHg 76%
    17:00 +4°C° 0 mm 2 m/s 747 mmHg 79%
    18:00 +3°C° 0 mm 2 m/s 747 mmHg 82%
    19:00 +3°C° 0 mm 1 m/s 747 mmHg 85%
    20:00 +2°C° 0 mm 1 m/s 748 mmHg 89%
    21:00 +2°C° 0 mm 1 m/s 747 mmHg 88%
    22:00 +2°C° 0 mm 1 m/s 747 mmHg 88%
    23:00 +2°C° 0 mm 1 m/s 747 mmHg 88%

    22 Martie, Vineri

    Timp Temperatura Precipitaţii Vânt Presiune Umiditate
    00:00 +2°C° 0 mm 1 m/s 747 mmHg 89%
    01:00 +1°C° 0 mm 2 m/s 747 mmHg 89%
    02:00 +1°C° 0 mm 2 m/s 746 mmHg 90%
    03:00 +1°C° 0 mm 2 m/s 746 mmHg 91%
    04:00 +2°C° 0 mm 2 m/s 746 mmHg 93%
    05:00 +1°C° 0 mm 3 m/s 746 mmHg 94%
    06:00 +2°C° 0 mm 3 m/s 746 mmHg 94%
    07:00 +2°C° 0 mm 3 m/s 746 mmHg 95%
    08:00 +3°C° 0 mm 3 m/s 746 mmHg 95%
    09:00 +3°C° 0 mm 3 m/s 745 mmHg 94%
    10:00 +4°C° 0 mm 3 m/s 745 mmHg 93%
    11:00 +4°C° 0 mm 3 m/s 745 mmHg 92%
    12:00 +5°C° 0.1 mm 3 m/s 744 mmHg 91%
    13:00 +5°C° 0.1 mm 4 m/s 743 mmHg 90%
    14:00 +5°C° 0.1 mm 4 m/s 743 mmHg 89%
    15:00 +6°C° 0.2 mm 4 m/s 742 mmHg 89%
    16:00 +6°C° 0.2 mm 5 m/s 741 mmHg 89%
    17:00 +6°C° 0.2 mm 5 m/s 740 mmHg 89%
    18:00 +6°C° 0.2 mm 5 m/s 740 mmHg 88%
    19:00 +5°C° 0.2 mm 6 m/s 739 mmHg 88%
    20:00 +5°C° 0.2 mm 6 m/s 738 mmHg 87%
    21:00 +5°C° 0.4 mm 6 m/s 738 mmHg 86%
    22:00 +5°C° 0.4 mm 6 m/s 737 mmHg 84%
    23:00 +5°C° 0.4 mm 6 m/s 737 mmHg 83%

    23 Martie, Sâmbătă

    Timp Temperatura Precipitaţii Vânt Presiune Umiditate
    00:00 +4°C° 0 mm 6 m/s 737 mmHg 79%
    01:00 +3°C° 0 mm 7 m/s 737 mmHg 76%
    02:00 +2°C° 0 mm 7 m/s 737 mmHg 72%
    03:00 0°C° 0 mm 7 m/s 737 mmHg 73%
    04:00 -1°C° 0 mm 7 m/s 738 mmHg 73%
    05:00 -2°C° 0 mm 7 m/s 739 mmHg 74%
    06:00 -3°C° 0 mm 7 m/s 739 mmHg 73%
    07:00 -3°C° 0 mm 7 m/s 740 mmHg 71%
    08:00 -4°C° 0 mm 8 m/s 740 mmHg 70%
    09:00 -2°C° 0 mm 8 m/s 741 mmHg 68%
    10:00 -2°C° 0 mm 7 m/s 741 mmHg 67%
    11:00 -2°C° 0 mm 7 m/s 742 mmHg 65%
    12:00 -1°C° 0 mm 7 m/s 742 mmHg 59%
    13:00 0°C° 0 mm 7 m/s 743 mmHg 54%
    14:00 +2°C° 0 mm 7 m/s 743 mmHg 48%
    15:00 +2°C° 0 mm 7 m/s 743 mmHg 49%
    16:00 +1°C° 0 mm 6 m/s 744 mmHg 50%
    17:00 +1°C° 0 mm 5 m/s 744 mmHg 51%
    18:00 0°C° 0 mm 4 m/s 744 mmHg 58%
    19:00 -1°C° 0 mm 4 m/s 744 mmHg 64%
    20:00 -1°C° 0 mm 3 m/s 745 mmHg 70%
    21:00 -1°C° 0 mm 3 m/s 745 mmHg 75%
    22:00 -1°C° 0 mm 3 m/s 745 mmHg 80%
    23:00 -2°C° 0 mm 2 m/s 745 mmHg 84%

    24 Martie, Duminică

    Timp Temperatura Precipitaţii Vânt Presiune Umiditate
    00:00 -2°C° 0 mm 2 m/s 745 mmHg 86%
    01:00 -2°C° 0 mm 2 m/s 744 mmHg 87%
    02:00 0°C° 0 mm 1 m/s 744 mmHg 89%
    03:00 0°C° 0 mm 1 m/s 744 mmHg 88%
    04:00 +1°C° 0 mm 1 m/s 743 mmHg 87%
    05:00 +1°C° 0 mm 1 m/s 743 mmHg 85%
    06:00 -1°C° 0.1 mm 2 m/s 742 mmHg 82%
    07:00 +1°C° 0.1 mm 2 m/s 741 mmHg 78%
    08:00 0°C° 0.1 mm 3 m/s 740 mmHg 74%
    09:00 -1°C° 0.6 mm 4 m/s 738 mmHg 75%
    10:00 0°C° 0.6 mm 5 m/s 737 mmHg 76%
    11:00 -1°C° 0.6 mm 6 m/s 735 mmHg 77%
    12:00 -1°C° 1.8 mm 6 m/s 733 mmHg 80%
    13:00 0°C° 1.8 mm 5 m/s 732 mmHg 84%
    14:00 0°C° 1.8 mm 5 m/s 730 mmHg 88%
    15:00 +1°C° 1.5 mm 5 m/s 729 mmHg 90%
    16:00 +2°C° 1.5 mm 5 m/s 727 mmHg 91%
    17:00 +3°C° 1.5 mm 5 m/s 726 mmHg 93%
    18:00 +2°C° 0.4 mm 6 m/s 726 mmHg 90%
    19:00 +2°C° 0.4 mm 6 m/s 726 mmHg 87%
    20:00 0°C° 0.4 mm 7 m/s 725 mmHg 84%
    21:00 -1°C° 0.2 mm 7 m/s 726 mmHg 83%
    22:00 -1°C° 0.2 mm 7 m/s 726 mmHg 82%
    23:00 -2°C° 0.2 mm 7 m/s 727 mmHg 82%
    Arată mai mult